FW7490 Weather Reports


time (UTC)temp
C
wind
direction
speed
KPH
gust
KPH
rain 1hr
cm
rain 24hr
cm
rain mn
cm
humidity
%
barometer
mb
20260507193030 14 329 0.0 4.8 0.00 0.38 0.23 68 1012.3
20260507191532 13 312 3.2 4.8 0.00 0.38 0.23 68 1012.3
20260507190028 13 81 1.6 4.8 0.00 0.38 0.23 69 1012.3
20260507184527 13 355 0.0 4.8 0.00 0.38 0.23 70 1012.6
20260507183027 12 304 0.0 3.2 0.03 0.38 0.23 71 1012.6
20260507181530 12 175 0.0 4.8 0.03 0.38 0.23 71 1012.7
20260507180034 12 18 0.0 3.2 0.03 0.38 0.23 72 1012.7
20260507174524 12 229 0.0 4.8 0.03 0.38 0.23 73 1013.0
20260507173030 12 261 0.0 8.0 0.00 0.36 0.20 73 1012.9
20260507171522 12 350 1.6 8.0 0.00 0.36 0.20 73 1013.0
20260507170022 11 5 1.6 8.0 0.00 0.38 0.20 72 1012.7
20260507164524 12 313 1.6 6.4 0.00 0.38 0.20 72 1012.7
20260507163018 12 33 1.6 4.8 0.00 0.38 0.20 72 1012.6
20260507161520 12 324 1.6 8.0 0.00 0.38 0.20 72 1012.5
20260507160016 12 342 1.6 11.3 0.00 0.46 0.20 73 1012.2
20260507154514 12 15 1.6 8.0 0.03 0.46 0.20 74 1012.3
20260507153012 12 67 3.2 16.1 0.03 0.46 0.20 76 1012.2
20260507151509 12 300 1.6 6.4 0.05 0.46 0.20 77 1012.2
20260507150017 12 74 3.2 14.5 0.03 0.43 0.18 77 1012.0
20260507144516 12 11 1.6 6.4 0.03 0.43 0.18 77 1012.0
20260507143004 12 77 1.6 6.4 0.03 0.43 0.18 77 1011.9
20260507141502 12 86 0.0 6.4 0.00 0.41 0.15 77 1011.8
20260507140002 12 45 1.6 4.8 0.00 0.43 0.15 77 1011.7
20260507134612 12 5 1.6 4.8 0.00 0.43 0.15 77 1011.5
20260507133134 12 322 3.2 8.0 0.00 0.43 0.15 77 1011.5
20260507131559 12 323 1.6 6.4 0.00 0.43 0.15 78 1011.4
20260507130108 12 19 0.0 4.8 0.03 0.46 0.15 78 1011.1
20260507124556 12 263 1.6 4.8 0.03 0.46 0.15 78 1011.4
20260507123055 12 277 0.0 3.2 0.03 0.46 0.15 78 1011.3
20260507121606 12 267 0.0 4.8 0.03 0.46 0.15 78 1011.2
20260507120100 12 79 0.0 0.0 0.00 0.46 0.13 78 1011.1
20260507114633 12 79 0.0 0.0 0.00 0.46 0.13 78 1011.0
20260507113051 12 79 0.0 0.0 0.00 0.46 0.13 78 1011.0
20260507111552 12 138 0.0 0.0 0.00 0.46 0.13 78 1011.3
20260507110048 12 319 0.0 0.0 0.00 0.46 0.13 78 1011.1
20260507104547 12 319 0.0 4.8 0.00 0.46 0.13 78 1010.8
20260507103046 12 29 0.0 0.0 0.00 0.46 0.13 78 1010.6
20260507101548 12 29 0.0 1.6 0.00 0.46 0.13 78 1010.1
20260507100046 12 355 0.0 4.8 0.00 0.46 0.13 78 1010.3
20260507094543 13 331 0.0 4.8 0.00 0.46 0.13 77 1010.5
20260507093047 13 91 0.0 0.0 0.03 0.46 0.13 78 1010.1
20260507091546 13 92 0.0 0.0 0.03 0.46 0.13 77 1010.1
20260507090041 13 92 0.0 3.2 0.05 0.46 0.13 77 1009.9
20260507084552 13 342 0.0 1.6 0.05 0.46 0.13 77 1010.1
20260507083037 13 286 0.0 3.2 0.05 0.43 0.10 77 1010.1
20260507081540 14 63 0.0 0.0 0.05 0.43 0.10 77 1009.8
20260507080036 14 63 0.0 3.2 0.03 0.41 0.08 77 1009.6
20260507074531 14 53 0.0 3.2 0.03 0.41 0.08 77 1009.8
20260507073029 15 50 1.6 6.4 0.00 0.38 0.05 77 1010.1
20260507071527 15 304 0.0 3.2 0.00 0.38 0.05 78 1009.7
20260507070031 15 304 0.0 4.8 0.00 0.41 0.05 77 1009.6
20260507064525 15 43 3.2 9.7 0.00 0.41 0.05 77 1009.6
20260507063021 16 312 3.2 9.7 0.05 0.41 0.05 77 1010.3
20260507061519 16 335 0.0 6.4 0.05 0.41 0.05 77 1010.0
20260507060017 17 5 3.2 6.4 0.05 0.41 0.05 78 1010.4
20260507054521 17 229 0.0 1.6 0.05 0.41 0.05 78 1010.7
20260507053017 17 213 1.6 8.0 0.00 0.36 0.00 78 1010.8
20260507051515 17 208 1.6 6.4 0.00 0.36 0.00 78 1010.5
20260507050016 17 182 0.0 4.8 0.03 0.36 0.00 78 1010.2
20260507044515 17 147 0.0 6.4 0.03 0.36 0.00 78 1010.2
20260507043020 17 154 0.0 0.0 0.03 0.36 0.00 77 1010.4
20260507041509 17 153 0.0 0.0 0.03 0.36 0.00 77 1010.8
20260507040010 17 153 0.0 0.0 0.00 0.33 0.33 77 1011.2
20260507034506 17 153 0.0 0.0 0.00 0.33 0.33 77 1011.3
20260507033006 17 153 0.0 0.0 0.00 0.33 0.33 77 1011.8
20260507031505 17 150 0.0 0.0 0.00 0.33 0.33 77 1011.2
20260507030006 17 182 0.0 4.8 0.00 0.33 0.33 77 1011.5
20260507024509 17 236 0.0 3.2 0.00 0.33 0.33 76 1011.5
20260507023004 17 210 0.0 3.2 0.00 0.33 0.33 76 1011.4
20260507021503 17 234 3.2 9.7 0.03 0.33 0.33 75 1011.0
20260507020004 17 267 0.0 6.4 0.05 0.33 0.33 75 1010.7
20260507014502 18 207 1.6 3.2 0.05 0.33 0.33 75 1010.9
20260507013008 18 236 3.2 6.4 0.10 0.33 0.33 75 1011.1
20260507011509 18 195 3.2 16.1 0.08 0.30 0.30 74 1012.1
20260507010002 18 210 0.0 8.0 0.05 0.28 0.28 74 1012.0
20260507004607 18 147 0.0 3.2 0.05 0.28 0.28 73 1011.2
20260507003100 18 146 0.0 3.2 0.03 0.23 0.23 72 1010.9
20260507001600 18 196 1.6 4.8 0.03 0.23 0.23 72 1011.0
20260507000101 18 225 0.0 1.6 0.03 0.23 0.23 72 1010.5
20260506234559 18 227 0.0 4.8 0.03 0.23 0.23 71 1010.4
20260506233111 19 154 1.6 6.4 0.00 0.20 0.20 71 1009.8
20260506231602 20 212 0.0 11.3 0.00 0.20 0.20 70 1010.4
20260506230058 20 216 1.6 6.4 0.00 0.20 0.20 70 1010.3
20260506224559 20 204 0.0 8.0 0.00 0.20 0.20 69 1010.2
20260506223056 20 191 0.0 6.4 0.00 0.20 0.20 68 1010.1
20260506221608 20 201 1.6 11.3 0.00 0.20 0.20 67 1009.7
20260506220056 21 257 1.6 12.9 0.00 0.20 0.20 66 1010.1
20260506214557 21 159 3.2 11.3 0.00 0.20 0.20 66 1009.8
20260506213112 21 173 1.6 6.4 0.00 0.20 0.20 65 1009.1
20260506211553 21 296 1.6 6.4 0.00 0.20 0.20 65 1009.9
20260506210053 21 287 3.2 9.7 0.00 0.20 0.20 64 1009.8
20260506204553 21 236 9.7 16.1 0.00 0.20 0.20 63 1009.9
20260506203052 21 186 3.2 17.7 0.00 0.20 0.20 63 1010.2
20260506201552 21 178 1.6 16.1 0.00 0.20 0.20 63 1010.4
20260506200051 21 242 4.8 14.5 0.00 0.20 0.20 64 1010.5
20260506194551 21 170 3.2 12.9 0.00 0.20 0.20 64 1010.5